カタログに戻る

NOAA 11

運用中気象SSO
NORAD 19531·PAYLOAD·🇺🇸 United States

打ち上げ Sep 24, 1988 から Vandenberg Space Force Base

Loading…

次のパス (今後24時間)

TLE

最新Source: Space-Track

元期: Sep 14, 2026, 07:58 UTC

1 19531U 88089A   26257.33238951  .00000018  00000-0  30618-4 0  9999
2 19531  98.6262 200.2403 0011920  46.4310 313.7852 14.15850273960095

AllMySatでNOAA 11をリアルタイム追跡

Download on the App Store